PIMOHWEATHER Station Historical Data
Daily Summary for November 10, 2020 Units:  Metric    English   Both
Daily Weekly Monthly Yearly
  High: Low: Average:
Temperature: 31.0 °C 25.0 °C 28 °C
Dew Point: 25.0 °C 22.0 °C 23.3 °C
Humidity: 88% 60% 76%
Wind Speed: 28km/h 0km/h 9.8km/h
Wind Gust: 36km/h - -
Wind- - SSE
Pressure: 1014.7 hPa 1011.2 hPa -
Precipitation: 2.69 mm    
 
 
Tabular Data for November 10, 2020
Time Temperature Dew Point Pressure Wind Wind Speed Wind Gust Humidity Rainfall Rate (Hourly) solar
00:04 27.0 °C 24.0 °C 1013.4 hPa WSW 4 km/h 4 km/h 84% 0.00 mm 0.00 W/m2
00:09 27.0 °C 24.0 °C 1013.5 hPa NNE 5 km/h 8 km/h 84% 0.00 mm 0.00 W/m2
00:14 27.0 °C 24.0 °C 1013.6 hPa North 1 km/h 4 km/h 84% 0.00 mm 0.00 W/m2
00:19 27.0 °C 24.0 °C 1013.5 hPa NE 5 km/h 8 km/h 84% 0.00 mm 0.00 W/m2
00:24 27.0 °C 24.0 °C 1013.5 hPa NNE 4 km/h 4 km/h 84% 0.00 mm 0.00 W/m2
00:29 27.0 °C 24.0 °C 1013.5 hPa NNE 1 km/h 4 km/h 84% 0.00 mm 0.00 W/m2
00:34 27.0 °C 24.0 °C 1013.5 hPa NNE 4 km/h 4 km/h 84% 0.00 mm 0.00 W/m2
00:39 27.0 °C 24.0 °C 1013.4 hPa NE 4 km/h 4 km/h 84% 0.00 mm 0.00 W/m2
00:44 27.0 °C 24.0 °C 1013.4 hPa NNE 8 km/h 12 km/h 84% 0.00 mm 0.00 W/m2
00:49 27.0 °C 24.0 °C 1013.3 hPa North 7 km/h 12 km/h 83% 0.00 mm 0.00 W/m2
00:54 27.0 °C 24.0 °C 1013.2 hPa North 10 km/h 12 km/h 83% 0.00 mm 0.00 W/m2
00:59 27.0 °C 24.0 °C 1013.1 hPa North 13 km/h 20 km/h 83% 0.00 mm 0.00 W/m2
01:04 27.0 °C 24.0 °C 1013.1 hPa North 17 km/h 20 km/h 83% 0.00 mm 0.00 W/m2
01:09 27.0 °C 23.0 °C 1012.9 hPa North 11 km/h 12 km/h 82% 0.00 mm 0.00 W/m2
01:14 27.0 °C 23.0 °C 1012.8 hPa North 6 km/h 8 km/h 82% 0.00 mm 0.00 W/m2
01:19 27.0 °C 23.0 °C 1012.8 hPa NNW 5 km/h 8 km/h 82% 0.00 mm 0.00 W/m2
01:24 27.0 °C 23.0 °C 1012.7 hPa NNE 3 km/h 4 km/h 82% 0.00 mm 0.00 W/m2
01:29 27.0 °C 23.0 °C 1012.8 hPa NNE 3 km/h 4 km/h 81% 0.00 mm 0.00 W/m2
01:34 27.0 °C 23.0 °C 1012.7 hPa North 4 km/h 4 km/h 82% 0.00 mm 0.00 W/m2
01:39 27.0 °C 23.0 °C 1012.9 hPa Calm     82% 1.80 mm 0.00 W/m2
01:44 26.0 °C 23.0 °C 1012.7 hPa Calm     83% 1.80 mm 0.00 W/m2
01:49 26.0 °C 24.0 °C 1012.4 hPa North 2 km/h 4 km/h 84% 1.80 mm 0.00 W/m2
01:54 26.0 °C 23.0 °C 1012.4 hPa North 3 km/h 4 km/h 84% 1.80 mm 0.00 W/m2
01:59 26.0 °C 24.0 °C 1012.2 hPa NNW 5 km/h 8 km/h 85% 3.61 mm 0.00 W/m2
02:04 26.0 °C 23.0 °C 1012.3 hPa NNW 5 km/h 8 km/h 85% 3.61 mm 0.00 W/m2
02:09 26.0 °C 24.0 °C 1012.2 hPa NNW 6 km/h 8 km/h 86% 1.80 mm 0.00 W/m2
02:14 26.0 °C 23.0 °C 1012.1 hPa NNW 5 km/h 8 km/h 86% 1.80 mm 0.00 W/m2
02:19 26.0 °C 23.0 °C 1012.2 hPa Calm     86% 1.80 mm 0.00 W/m2
02:24 26.0 °C 23.0 °C 1012.0 hPa NNW 6 km/h 8 km/h 86% 0.00 mm 0.00 W/m2
02:29 26.0 °C 24.0 °C 1012.0 hPa NNW 5 km/h 8 km/h 87% 1.80 mm 0.00 W/m2
02:34 26.0 °C 24.0 °C 1012.0 hPa North 8 km/h 8 km/h 87% 1.80 mm 0.00 W/m2
02:39 26.0 °C 23.0 °C 1011.9 hPa North 11 km/h 12 km/h 87% 1.80 mm 0.00 W/m2
02:44 26.0 °C 23.0 °C 1011.8 hPa North 11 km/h 16 km/h 88% 1.80 mm 0.00 W/m2
02:49 26.0 °C 23.0 °C 1011.8 hPa North 17 km/h 20 km/h 88% 1.80 mm 0.00 W/m2
02:54 26.0 °C 23.0 °C 1011.8 hPa North 12 km/h 20 km/h 88% 0.00 mm 0.00 W/m2
02:59 25.0 °C 23.0 °C 1011.7 hPa North 15 km/h 20 km/h 88% 0.00 mm 0.00 W/m2
03:04 25.0 °C 23.0 °C 1011.8 hPa North 15 km/h 16 km/h 88% 1.80 mm 0.00 W/m2
03:09 25.0 °C 23.0 °C 1011.7 hPa North 13 km/h 16 km/h 88% 1.80 mm 0.00 W/m2
03:14 25.0 °C 23.0 °C 1011.9 hPa North 10 km/h 16 km/h 88% 1.80 mm 0.00 W/m2
03:19 25.0 °C 23.0 °C 1011.9 hPa North 18 km/h 24 km/h 88% 0.00 mm 0.00 W/m2
03:24 25.0 °C 23.0 °C 1011.8 hPa North 12 km/h 16 km/h 88% 0.00 mm 0.00 W/m2
03:29 25.0 °C 23.0 °C 1011.6 hPa North 14 km/h 20 km/h 88% 0.00 mm 0.00 W/m2
03:34 25.0 °C 23.0 °C 1011.8 hPa North 11 km/h 16 km/h 87% 0.00 mm 0.00 W/m2
03:39 25.0 °C 23.0 °C 1011.8 hPa NNE 15 km/h 20 km/h 87% 0.00 mm 0.00 W/m2
03:44 25.0 °C 23.0 °C 1011.8 hPa NE 9 km/h 12 km/h 87% 0.00 mm 0.00 W/m2
03:49 25.0 °C 23.0 °C 1011.7 hPa NNE 12 km/h 16 km/h 87% 0.00 mm 0.00 W/m2
03:54 25.0 °C 23.0 °C 1011.9 hPa NE 9 km/h 12 km/h 87% 0.00 mm 0.00 W/m2
03:59 25.0 °C 23.0 °C 1011.8 hPa NE 8 km/h 12 km/h 87% 0.00 mm 0.00 W/m2
04:04 25.0 °C 23.0 °C 1011.8 hPa NE 8 km/h 8 km/h 86% 0.00 mm 0.00 W/m2
04:09 25.0 °C 23.0 °C 1011.8 hPa ENE 12 km/h 16 km/h 86% 0.00 mm 0.00 W/m2
04:14 25.0 °C 23.0 °C 1011.8 hPa NE 5 km/h 8 km/h 86% 0.00 mm 0.00 W/m2
04:19 25.0 °C 23.0 °C 1011.8 hPa NNE 4 km/h 4 km/h 86% 0.00 mm 0.00 W/m2
04:24 25.0 °C 23.0 °C 1011.9 hPa NE 4 km/h 4 km/h 86% 0.00 mm 0.00 W/m2
04:29 25.0 °C 23.0 °C 1011.9 hPa Calm     86% 0.00 mm 0.00 W/m2
04:34 25.0 °C 23.0 °C 1011.9 hPa Calm     86% 0.00 mm 0.00 W/m2
04:39 25.0 °C 23.0 °C 1012.1 hPa NE 4 km/h 4 km/h 86% 0.00 mm 0.00 W/m2
04:44 25.0 °C 23.0 °C 1012.1 hPa NE 5 km/h 8 km/h 86% 0.00 mm 0.00 W/m2
04:49 25.0 °C 23.0 °C 1012.1 hPa NE 2 km/h 4 km/h 85% 0.00 mm 0.00 W/m2
04:54 25.0 °C 23.0 °C 1012.1 hPa ENE 4 km/h 4 km/h 85% 0.00 mm 0.00 W/m2
04:59 25.0 °C 23.0 °C 1012.2 hPa Calm     86% 0.00 mm 0.00 W/m2
05:04 25.0 °C 23.0 °C 1012.2 hPa ENE 3 km/h 4 km/h 86% 0.00 mm 0.00 W/m2
05:09 25.0 °C 23.0 °C 1012.2 hPa ENE 4 km/h 4 km/h 86% 0.00 mm 0.00 W/m2
05:14 25.0 °C 23.0 °C 1012.3 hPa ENE 9 km/h 12 km/h 86% 0.00 mm 0.00 W/m2
05:19 25.0 °C 23.0 °C 1012.5 hPa ENE 5 km/h 8 km/h 86% 0.00 mm 0.00 W/m2
05:24 25.0 °C 23.0 °C 1012.6 hPa ENE 8 km/h 12 km/h 86% 0.00 mm 0.00 W/m2
05:29 25.0 °C 23.0 °C 1012.8 hPa NE 3 km/h 4 km/h 85% 0.00 mm 0.00 W/m2
05:34 25.0 °C 23.0 °C 1012.7 hPa NNW 1 km/h 4 km/h 86% 0.00 mm 0.00 W/m2
05:39 25.0 °C 23.0 °C 1012.6 hPa Calm     86% 0.00 mm 0.00 W/m2
05:44 25.0 °C 23.0 °C 1012.9 hPa Calm     86% 0.00 mm 0.00 W/m2
05:49 25.0 °C 23.0 °C 1012.9 hPa NW 3 km/h 4 km/h 86% 0.00 mm 0.00 W/m2
05:54 25.0 °C 23.0 °C 1012.8 hPa NW 1 km/h 4 km/h 86% 0.00 mm 1.22 W/m2
05:59 25.0 °C 23.0 °C 1013.1 hPa Calm     86% 0.00 mm 3.79 W/m2
06:04 25.0 °C 23.0 °C 1013.0 hPa NW 3 km/h 4 km/h 86% 0.00 mm 7.34 W/m2
06:09 25.0 °C 23.0 °C 1013.1 hPa Calm   4 km/h 86% 0.00 mm 10.39 W/m2
06:14 26.0 °C 23.0 °C 1013.0 hPa NW 4 km/h 4 km/h 86% 0.00 mm 15.53 W/m2
06:19 26.0 °C 23.0 °C 1013.2 hPa West 4 km/h 8 km/h 85% 0.00 mm 28.14 W/m2
06:24 26.0 °C 23.0 °C 1013.2 hPa West 4 km/h 4 km/h 85% 0.00 mm 37.68 W/m2
06:29 26.0 °C 23.0 °C 1013.2 hPa West 2 km/h 4 km/h 85% 0.00 mm 43.80 W/m2
06:34 26.0 °C 23.0 °C 1013.3 hPa Calm     85% 0.00 mm 48.93 W/m2
06:39 26.0 °C 23.0 °C 1013.3 hPa West 4 km/h 4 km/h 84% 0.00 mm 46.36 W/m2
06:44 26.0 °C 23.0 °C 1013.4 hPa WSW 3 km/h 4 km/h 84% 0.00 mm 41.10 W/m2
06:49 26.0 °C 23.0 °C 1013.5 hPa Calm   4 km/h 84% 0.00 mm 44.16 W/m2
06:54 26.0 °C 23.0 °C 1013.7 hPa Calm     84% 0.00 mm 52.48 W/m2
06:59 26.0 °C 23.0 °C 1013.7 hPa Calm     83% 0.00 mm 72.79 W/m2
07:04 26.0 °C 23.0 °C 1013.7 hPa Calm     83% 0.00 mm 79.76 W/m2
07:09 26.0 °C 23.0 °C 1013.7 hPa WSW 1 km/h 4 km/h 82% 0.00 mm 84.04 W/m2
07:14 27.0 °C 23.0 °C 1013.7 hPa Calm     82% 0.00 mm 90.16 W/m2
07:19 27.0 °C 23.0 °C 1013.8 hPa WSW 8 km/h 8 km/h 81% 0.00 mm 96.65 W/m2
07:24 27.0 °C 23.0 °C 1013.8 hPa SW 7 km/h 8 km/h 80% 0.00 mm 110.59 W/m2
07:29 27.0 °C 23.0 °C 1013.8 hPa SW 8 km/h 8 km/h 79% 0.00 mm 117.07 W/m2
07:34 28.0 °C 23.0 °C 1013.9 hPa SW 4 km/h 8 km/h 78% 0.00 mm 104.10 W/m2
07:39 28.0 °C 23.0 °C 1013.9 hPa SSW 4 km/h 4 km/h 76% 0.00 mm 86.24 W/m2
07:44 28.0 °C 23.0 °C 1014.0 hPa SW 5 km/h 8 km/h 75% 0.00 mm 114.51 W/m2
07:49 28.0 °C 23.0 °C 1014.0 hPa SW 4 km/h 4 km/h 74% 0.00 mm 160.87 W/m2
07:54 28.0 °C 23.0 °C 1014.1 hPa NNW 5 km/h 8 km/h 74% 0.00 mm 182.53 W/m2
07:59 28.0 °C 23.0 °C 1014.1 hPa NNW 5 km/h 8 km/h 74% 0.00 mm 218.98 W/m2
08:04 29.0 °C 23.0 °C 1014.1 hPa North 10 km/h 16 km/h 73% 0.00 mm 209.07 W/m2
08:09 29.0 °C 23.0 °C 1014.2 hPa NNW 11 km/h 12 km/h 72% 0.00 mm 147.05 W/m2
08:14 29.0 °C 23.0 °C 1014.4 hPa North 13 km/h 16 km/h 72% 0.00 mm 185.58 W/m2
08:19 29.0 °C 23.0 °C 1014.4 hPa North 15 km/h 16 km/h 72% 0.00 mm 167.36 W/m2
08:24 29.0 °C 23.0 °C 1014.4 hPa North 13 km/h 16 km/h 72% 0.00 mm 194.76 W/m2
08:29 29.0 °C 23.0 °C 1014.4 hPa North 9 km/h 12 km/h 72% 0.00 mm 219.83 W/m2
08:34 29.0 °C 23.0 °C 1014.4 hPa NNW 9 km/h 12 km/h 72% 0.00 mm 221.18 W/m2
08:39 29.0 °C 23.0 °C 1014.6 hPa North 9 km/h 12 km/h 72% 0.00 mm 269.38 W/m2
08:44 29.0 °C 23.0 °C 1014.6 hPa North 3 km/h 4 km/h 71% 0.00 mm 276.24 W/m2
08:49 29.0 °C 23.0 °C 1014.5 hPa NNW 17 km/h 20 km/h 72% 0.00 mm 249.44 W/m2
08:54 29.0 °C 23.0 °C 1014.6 hPa North 11 km/h 16 km/h 72% 0.00 mm 164.29 W/m2
08:59 29.0 °C 23.0 °C 1014.5 hPa NNW 11 km/h 12 km/h 73% 0.00 mm 116.22 W/m2
09:04 29.0 °C 24.0 °C 1014.6 hPa North 16 km/h 24 km/h 75% 0.00 mm 147.05 W/m2
09:09 28.0 °C 24.0 °C 1014.6 hPa NNW 18 km/h 20 km/h 75% 0.00 mm 191.70 W/m2
09:14 29.0 °C 24.0 °C 1014.6 hPa NW 12 km/h 16 km/h 75% 0.00 mm 230.24 W/m2
09:19 29.0 °C 24.0 °C 1014.5 hPa North 15 km/h 24 km/h 74% 0.00 mm 523.60 W/m2
09:24 29.0 °C 23.0 °C 1014.5 hPa North 16 km/h 20 km/h 73% 0.00 mm 576.94 W/m2
09:29 29.0 °C 24.0 °C 1014.5 hPa WNW 17 km/h 24 km/h 73% 0.00 mm 503.65 W/m2
09:34 29.0 °C 24.0 °C 1014.6 hPa WNW 10 km/h 16 km/h 73% 0.00 mm 562.99 W/m2
09:39 30.0 °C 24.0 °C 1014.7 hPa NNW 17 km/h 20 km/h 73% 0.00 mm 523.96 W/m2
09:44 29.0 °C 24.0 °C 1014.7 hPa NNW 8 km/h 12 km/h 73% 0.00 mm 260.69 W/m2
09:49 29.0 °C 24.0 °C 1014.7 hPa North 14 km/h 16 km/h 73% 0.00 mm 221.18 W/m2
09:54 30.0 °C 24.0 °C 1014.6 hPa NNW 15 km/h 20 km/h 73% 0.00 mm 761.29 W/m2
09:59 30.0 °C 24.0 °C 1014.4 hPa NNW 12 km/h 16 km/h 70% 0.00 mm 547.45 W/m2
10:04 30.0 °C 24.0 °C 1014.4 hPa North 18 km/h 24 km/h 70% 0.00 mm 408.11 W/m2
10:09 30.0 °C 24.0 °C 1014.5 hPa North 28 km/h 32 km/h 70% 0.00 mm 308.78 W/m2
10:14 30.0 °C 24.0 °C 1014.4 hPa North 23 km/h 32 km/h 70% 0.00 mm 227.30 W/m2
10:19 29.0 °C 23.0 °C 1014.3 hPa North 18 km/h 24 km/h 70% 0.00 mm 195.61 W/m2
10:24 30.0 °C 24.0 °C 1014.2 hPa North 22 km/h 28 km/h 70% 0.00 mm 316.61 W/m2
10:29 30.0 °C 24.0 °C 1014.3 hPa North 22 km/h 28 km/h 72% 0.00 mm 227.30 W/m2
10:34 29.0 °C 24.0 °C 1014.2 hPa North 15 km/h 24 km/h 72% 0.00 mm 257.64 W/m2
10:39 29.0 °C 24.0 °C 1014.4 hPa North 21 km/h 28 km/h 72% 0.00 mm 250.66 W/m2
10:44 29.0 °C 24.0 °C 1014.2 hPa North 19 km/h 28 km/h 72% 0.00 mm 296.66 W/m2
10:49 29.0 °C 24.0 °C 1014.3 hPa North 23 km/h 36 km/h 73% 0.00 mm 341.32 W/m2
10:54 29.0 °C 24.0 °C 1014.2 hPa North 18 km/h 24 km/h 73% 0.00 mm 348.29 W/m2
10:59 29.0 °C 24.0 °C 1014.1 hPa NE 12 km/h 20 km/h 72% 0.00 mm 308.41 W/m2
11:04 29.0 °C 24.0 °C 1014.2 hPa North 20 km/h 24 km/h 72% 0.00 mm 295.81 W/m2
11:09 29.0 °C 24.0 °C 1014.0 hPa NE 14 km/h 20 km/h 72% 0.00 mm 285.78 W/m2
11:14 29.0 °C 24.0 °C 1014.1 hPa North 14 km/h 24 km/h 71% 0.00 mm 254.58 W/m2
11:19 29.0 °C 24.0 °C 1014.2 hPa NNE 16 km/h 20 km/h 71% 0.00 mm 191.21 W/m2
11:24 29.0 °C 23.0 °C 1014.0 hPa North 17 km/h 24 km/h 71% 0.00 mm 195.98 W/m2
11:29 29.0 °C 24.0 °C 1014.0 hPa North 15 km/h 24 km/h 72% 0.00 mm 276.24 W/m2
11:34 29.0 °C 23.0 °C 1013.9 hPa North 21 km/h 28 km/h 71% 0.00 mm 300.09 W/m2
11:39 30.0 °C 24.0 °C 1013.6 hPa NE 15 km/h 20 km/h 71% 0.00 mm 297.52 W/m2
11:44 30.0 °C 24.0 °C 1013.9 hPa NNE 15 km/h 28 km/h 70% 0.00 mm 291.40 W/m2
11:49 30.0 °C 24.0 °C 1013.5 hPa North 18 km/h 24 km/h 71% 0.00 mm 286.63 W/m2
11:54 30.0 °C 24.0 °C 1013.5 hPa NNE 14 km/h 20 km/h 70% 0.00 mm 284.06 W/m2
11:59 30.0 °C 24.0 °C 1013.5 hPa North 10 km/h 20 km/h 70% 0.00 mm 244.18 W/m2
12:04 30.0 °C 24.0 °C 1013.5 hPa North 11 km/h 12 km/h 70% 0.00 mm 243.69 W/m2
12:09 30.0 °C 24.0 °C 1013.3 hPa North 21 km/h 24 km/h 69% 0.00 mm 270.24 W/m2
12:14 30.0 °C 23.0 °C 1013.4 hPa North 14 km/h 24 km/h 69% 0.00 mm 269.38 W/m2
12:19 30.0 °C 23.0 °C 1013.2 hPa NNE 13 km/h 16 km/h 68% 0.00 mm 289.69 W/m2
12:24 30.0 °C 23.0 °C 1013.3 hPa NE 13 km/h 16 km/h 67% 0.00 mm 262.78 W/m2
12:29 30.0 °C 24.0 °C 1013.0 hPa ENE 14 km/h 20 km/h 68% 0.00 mm 296.66 W/m2
12:34 30.0 °C 23.0 °C 1012.9 hPa NNE 7 km/h 8 km/h 67% 0.00 mm 304.86 W/m2
12:39 31.0 °C 23.0 °C 1012.8 hPa North 10 km/h 12 km/h 66% 0.00 mm 511.85 W/m2
12:44 31.0 °C 24.0 °C 1012.7 hPa ENE 20 km/h 24 km/h 65% 0.00 mm 599.08 W/m2
12:49 31.0 °C 23.0 °C 1012.7 hPa NW 12 km/h 16 km/h 66% 0.00 mm 356.49 W/m2
12:54 31.0 °C 23.0 °C 1012.4 hPa North 15 km/h 20 km/h 66% 0.00 mm 374.71 W/m2
12:59 31.0 °C 23.0 °C 1012.4 hPa North 21 km/h 28 km/h 65% 0.00 mm 193.05 W/m2
13:04 31.0 °C 23.0 °C 1012.2 hPa North 19 km/h 24 km/h 64% 0.00 mm 183.02 W/m2
13:09 31.0 °C 23.0 °C 1012.1 hPa North 15 km/h 20 km/h 64% 0.00 mm 137.02 W/m2
13:14 31.0 °C 23.0 °C 1012.2 hPa ENE 12 km/h 16 km/h 64% 0.00 mm 143.13 W/m2
13:19 31.0 °C 23.0 °C 1012.0 hPa North 17 km/h 20 km/h 63% 0.00 mm 190.36 W/m2
13:24 31.0 °C 23.0 °C 1012.0 hPa NNE 13 km/h 16 km/h 64% 0.00 mm 267.18 W/m2
13:29 31.0 °C 25.0 °C 1012.0 hPa SW 11 km/h 16 km/h 69% 0.00 mm 459.37 W/m2
13:34 31.0 °C 24.0 °C 1011.9 hPa SSW 12 km/h 16 km/h 70% 0.00 mm 796.41 W/m2
13:39 31.0 °C 25.0 °C 1011.9 hPa SW 17 km/h 20 km/h 70% 0.00 mm 804.73 W/m2
13:44 31.0 °C 24.0 °C 1011.9 hPa West 10 km/h 12 km/h 70% 0.00 mm 414.23 W/m2
13:49 31.0 °C 25.0 °C 1011.7 hPa SW 14 km/h 16 km/h 69% 0.00 mm 306.69 W/m2
13:54 31.0 °C 25.0 °C 1011.5 hPa SSW 12 km/h 16 km/h 70% 0.00 mm 271.95 W/m2
13:59 31.0 °C 25.0 °C 1011.6 hPa SW 15 km/h 20 km/h 70% 0.00 mm 480.17 W/m2
14:04 31.0 °C 25.0 °C 1011.6 hPa SW 12 km/h 16 km/h 69% 0.00 mm 503.65 W/m2
14:09 31.0 °C 25.0 °C 1011.5 hPa WSW 19 km/h 20 km/h 71% 0.00 mm 213.84 W/m2
14:14 30.0 °C 24.0 °C 1011.5 hPa SSW 10 km/h 12 km/h 71% 0.00 mm 170.90 W/m2
14:19 30.0 °C 25.0 °C 1011.4 hPa SSW 10 km/h 16 km/h 72% 0.00 mm 137.02 W/m2
14:24 30.0 °C 25.0 °C 1011.5 hPa SSW 15 km/h 20 km/h 74% 0.00 mm 183.87 W/m2
14:29 30.0 °C 25.0 °C 1011.3 hPa SW 20 km/h 24 km/h 74% 0.00 mm 210.78 W/m2
14:34 29.0 °C 24.0 °C 1011.4 hPa SW 16 km/h 24 km/h 74% 0.00 mm 222.90 W/m2
14:39 30.0 °C 24.0 °C 1011.2 hPa SW 18 km/h 24 km/h 73% 0.00 mm 251.15 W/m2
14:44 30.0 °C 24.0 °C 1011.3 hPa SW 15 km/h 16 km/h 73% 0.00 mm 255.93 W/m2
14:49 30.0 °C 24.0 °C 1011.5 hPa East 10 km/h 12 km/h 72% 0.00 mm 235.98 W/m2
14:54 30.0 °C 24.0 °C 1011.5 hPa ENE 6 km/h 8 km/h 70% 0.00 mm 209.07 W/m2
14:59 31.0 °C 24.0 °C 1011.4 hPa WSW 8 km/h 8 km/h 69% 0.00 mm 182.15 W/m2
15:04 31.0 °C 24.0 °C 1011.5 hPa NNE 5 km/h 8 km/h 67% 0.00 mm 183.50 W/m2
15:09 31.0 °C 23.0 °C 1011.3 hPa NE 18 km/h 24 km/h 60% 0.00 mm 174.33 W/m2
15:14 31.0 °C 23.0 °C 1011.6 hPa NE 10 km/h 12 km/h 60% 0.00 mm 163.07 W/m2
15:19 31.0 °C 22.0 °C 1011.7 hPa East 16 km/h 24 km/h 60% 0.00 mm 137.51 W/m2
15:24 31.0 °C 22.0 °C 1011.8 hPa East 20 km/h 24 km/h 61% 0.00 mm 100.56 W/m2
15:29 31.0 °C 22.0 °C 1011.8 hPa ENE 20 km/h 24 km/h 61% 0.00 mm 88.82 W/m2
15:34 31.0 °C 23.0 °C 1011.7 hPa ENE 20 km/h 24 km/h 62% 0.00 mm 83.19 W/m2
15:39 31.0 °C 22.0 °C 1011.6 hPa East 11 km/h 16 km/h 62% 0.00 mm 80.25 W/m2
15:44 31.0 °C 23.0 °C 1011.5 hPa NNW 12 km/h 16 km/h 62% 0.00 mm 74.14 W/m2
15:49 31.0 °C 23.0 °C 1011.6 hPa ENE 13 km/h 16 km/h 63% 0.00 mm 72.79 W/m2
15:54 30.0 °C 23.0 °C 1011.7 hPa ENE 10 km/h 20 km/h 63% 0.00 mm 68.02 W/m2
15:59 30.0 °C 23.0 °C 1011.7 hPa NE 4 km/h 8 km/h 63% 0.00 mm 56.27 W/m2
16:04 31.0 °C 23.0 °C 1011.5 hPa NNE 9 km/h 12 km/h 63% 0.00 mm 52.48 W/m2
16:09 31.0 °C 23.0 °C 1011.5 hPa NNE 14 km/h 20 km/h 62% 0.00 mm 49.42 W/m2
16:14 31.0 °C 23.0 °C 1011.5 hPa NE 13 km/h 16 km/h 62% 0.00 mm 52.85 W/m2
16:19 31.0 °C 23.0 °C 1011.6 hPa ENE 15 km/h 20 km/h 63% 0.00 mm 53.70 W/m2
16:24 31.0 °C 23.0 °C 1011.6 hPa NE 10 km/h 12 km/h 63% 0.00 mm 46.36 W/m2
16:29 31.0 °C 23.0 °C 1011.5 hPa North 9 km/h 12 km/h 63% 0.00 mm 41.59 W/m2
16:34 31.0 °C 23.0 °C 1011.7 hPa North 13 km/h 16 km/h 64% 0.00 mm 39.39 W/m2
16:39 31.0 °C 23.0 °C 1011.6 hPa NNE 10 km/h 12 km/h 64% 0.00 mm 37.19 W/m2
16:44 30.0 °C 23.0 °C 1011.6 hPa North 8 km/h 12 km/h 64% 0.00 mm 32.05 W/m2
16:49 30.0 °C 23.0 °C 1011.8 hPa North 10 km/h 12 km/h 64% 0.00 mm 31.19 W/m2
16:54 30.0 °C 23.0 °C 1011.8 hPa North 10 km/h 12 km/h 64% 0.00 mm 29.85 W/m2
16:59 30.0 °C 23.0 °C 1012.0 hPa North 9 km/h 12 km/h 64% 0.00 mm 33.76 W/m2
17:04 30.0 °C 23.0 °C 1012.2 hPa North 12 km/h 16 km/h 64% 0.00 mm 33.39 W/m2
17:09 30.0 °C 23.0 °C 1012.2 hPa NNE 10 km/h 16 km/h 63% 0.00 mm 27.65 W/m2
17:14 30.0 °C 23.0 °C 1012.3 hPa North 12 km/h 16 km/h 64% 0.00 mm 18.11 W/m2
17:19 30.0 °C 23.0 °C 1012.3 hPa NE 13 km/h 16 km/h 64% 0.00 mm 12.11 W/m2
17:24 30.0 °C 22.0 °C 1012.4 hPa North 9 km/h 12 km/h 64% 0.00 mm 6.48 W/m2
17:29 30.0 °C 23.0 °C 1012.5 hPa North 10 km/h 16 km/h 65% 0.00 mm 2.57 W/m2
17:34 30.0 °C 22.0 °C 1012.6 hPa North 11 km/h 16 km/h 65% 0.00 mm 0.00 W/m2
17:39 30.0 °C 23.0 °C 1012.6 hPa North 10 km/h 16 km/h 66% 0.00 mm 0.00 W/m2
17:44 30.0 °C 23.0 °C 1012.6 hPa North 10 km/h 12 km/h 66% 0.00 mm 0.00 W/m2
17:49 29.0 °C 23.0 °C 1012.7 hPa NNE 7 km/h 12 km/h 67% 0.00 mm 0.00 W/m2
17:54 29.0 °C 23.0 °C 1012.7 hPa NNE 8 km/h 12 km/h 68% 0.00 mm 0.00 W/m2
17:59 29.0 °C 23.0 °C 1012.8 hPa NE 20 km/h 24 km/h 68% 0.00 mm 0.00 W/m2
18:04 29.0 °C 23.0 °C 1012.9 hPa NNE 9 km/h 12 km/h 69% 0.00 mm 0.00 W/m2
18:09 29.0 °C 23.0 °C 1012.9 hPa NNE 12 km/h 20 km/h 71% 0.00 mm 0.00 W/m2
18:14 29.0 °C 23.0 °C 1013.0 hPa NNE 9 km/h 12 km/h 71% 0.00 mm 0.00 W/m2
18:19 29.0 °C 23.0 °C 1013.2 hPa NE 12 km/h 16 km/h 70% 0.00 mm 0.00 W/m2
18:24 29.0 °C 23.0 °C 1012.9 hPa North 8 km/h 12 km/h 70% 0.00 mm 0.00 W/m2
18:29 29.0 °C 23.0 °C 1013.1 hPa NNE 5 km/h 8 km/h 70% 0.00 mm 0.00 W/m2
18:34 29.0 °C 23.0 °C 1013.4 hPa NNE 9 km/h 12 km/h 71% 0.00 mm 0.00 W/m2
18:39 29.0 °C 23.0 °C 1013.3 hPa North 10 km/h 12 km/h 72% 0.00 mm 0.00 W/m2
18:44 29.0 °C 23.0 °C 1013.3 hPa North 16 km/h 20 km/h 72% 0.00 mm 0.00 W/m2
18:49 29.0 °C 23.0 °C 1013.6 hPa North 14 km/h 16 km/h 73% 0.00 mm 0.00 W/m2
18:54 28.0 °C 23.0 °C 1013.7 hPa North 15 km/h 24 km/h 73% 0.00 mm 0.00 W/m2
18:59 28.0 °C 23.0 °C 1013.7 hPa North 19 km/h 28 km/h 75% 0.00 mm 0.00 W/m2
19:04 28.0 °C 23.0 °C 1013.7 hPa North 10 km/h 12 km/h 76% 0.00 mm 0.00 W/m2
19:09 28.0 °C 23.0 °C 1013.8 hPa North 14 km/h 20 km/h 76% 0.00 mm 0.00 W/m2
19:14 28.0 °C 23.0 °C 1013.8 hPa NNE 13 km/h 20 km/h 76% 0.00 mm 0.00 W/m2
19:19 28.0 °C 23.0 °C 1013.8 hPa NE 12 km/h 16 km/h 76% 0.00 mm 0.00 W/m2
19:24 28.0 °C 23.0 °C 1013.9 hPa NE 12 km/h 16 km/h 77% 0.00 mm 0.00 W/m2
19:29 27.0 °C 23.0 °C 1014.0 hPa NNE 11 km/h 20 km/h 77% 0.00 mm 0.00 W/m2
19:34 27.0 °C 23.0 °C 1014.0 hPa NNE 11 km/h 16 km/h 77% 0.00 mm 0.00 W/m2
19:39 27.0 °C 23.0 °C 1014.0 hPa North 9 km/h 12 km/h 78% 0.00 mm 0.00 W/m2
19:44 27.0 °C 23.0 °C 1014.0 hPa NNE 10 km/h 12 km/h 78% 0.00 mm 0.00 W/m2
19:49 27.0 °C 23.0 °C 1014.2 hPa North 9 km/h 12 km/h 78% 0.00 mm 0.00 W/m2
19:54 27.0 °C 23.0 °C 1014.1 hPa NNE 11 km/h 16 km/h 78% 0.00 mm 0.00 W/m2
19:59 27.0 °C 23.0 °C 1014.3 hPa North 8 km/h 12 km/h 77% 0.00 mm 0.00 W/m2
20:04 27.0 °C 23.0 °C 1014.5 hPa NE 8 km/h 12 km/h 77% 0.00 mm 0.00 W/m2
20:09 27.0 °C 23.0 °C 1014.5 hPa NE 10 km/h 16 km/h 77% 0.00 mm 0.00 W/m2
20:14 27.0 °C 23.0 °C 1014.3 hPa NNE 14 km/h 20 km/h 77% 0.00 mm 0.00 W/m2
20:19 28.0 °C 23.0 °C 1014.3 hPa ENE 10 km/h 16 km/h 76% 0.00 mm 0.00 W/m2
20:24 28.0 °C 23.0 °C 1014.3 hPa NNE 12 km/h 16 km/h 75% 0.00 mm 0.00 W/m2
20:29 28.0 °C 23.0 °C 1014.6 hPa NE 15 km/h 20 km/h 76% 1.80 mm 0.00 W/m2
20:34 28.0 °C 23.0 °C 1014.6 hPa ENE 14 km/h 24 km/h 78% 3.61 mm 0.00 W/m2
20:39 27.0 °C 23.0 °C 1014.5 hPa ENE 6 km/h 12 km/h 78% 3.61 mm 0.00 W/m2
20:44 27.0 °C 23.0 °C 1014.6 hPa NE 6 km/h 8 km/h 79% 1.80 mm 0.00 W/m2
20:49 27.0 °C 23.0 °C 1014.5 hPa ENE 5 km/h 8 km/h 79% 0.00 mm 0.00 W/m2
20:54 27.0 °C 23.0 °C 1014.6 hPa ENE 4 km/h 8 km/h 79% 0.00 mm 0.00 W/m2
20:59 27.0 °C 23.0 °C 1014.5 hPa ENE 5 km/h 8 km/h 80% 0.00 mm 0.00 W/m2
21:04 27.0 °C 23.0 °C 1014.5 hPa Calm     80% 0.00 mm 0.00 W/m2
21:09 27.0 °C 23.0 °C 1014.4 hPa ENE 2 km/h 4 km/h 80% 0.00 mm 0.00 W/m2
21:14 27.0 °C 23.0 °C 1014.3 hPa Calm   4 km/h 81% 0.00 mm 0.00 W/m2
21:19 27.0 °C 23.0 °C 1014.3 hPa Calm     81% 0.00 mm 0.00 W/m2
21:24 27.0 °C 23.0 °C 1014.2 hPa North 1 km/h 4 km/h 81% 0.00 mm 0.00 W/m2
21:29 27.0 °C 23.0 °C 1014.0 hPa North 4 km/h 4 km/h 81% 0.00 mm 0.00 W/m2
21:34 27.0 °C 23.0 °C 1014.1 hPa NNW 4 km/h 4 km/h 81% 0.00 mm 0.00 W/m2
21:39 27.0 °C 23.0 °C 1014.0 hPa NNW 4 km/h 4 km/h 81% 0.00 mm 0.00 W/m2
21:43 27.0 °C 23.0 °C 1014.2 hPa NNW 4 km/h 4 km/h 80% 0.00 mm 0.00 W/m2
21:49 27.0 °C 23.0 °C 1014.0 hPa North 1 km/h 4 km/h 80% 0.00 mm 0.00 W/m2
21:54 27.0 °C 23.0 °C 1014.1 hPa Calm   4 km/h 80% 0.00 mm 0.00 W/m2
21:59 27.0 °C 23.0 °C 1014.1 hPa North 5 km/h 8 km/h 80% 0.00 mm 0.00 W/m2
22:04 27.0 °C 23.0 °C 1014.0 hPa North 4 km/h 4 km/h 80% 0.00 mm 0.00 W/m2
22:09 27.0 °C 23.0 °C 1014.0 hPa North 10 km/h 12 km/h 80% 0.00 mm 0.00 W/m2
22:14 27.0 °C 23.0 °C 1014.0 hPa North 10 km/h 16 km/h 80% 0.00 mm 0.00 W/m2
22:19 27.0 °C 23.0 °C 1014.0 hPa North 12 km/h 16 km/h 80% 0.00 mm 0.00 W/m2
22:24 27.0 °C 23.0 °C 1014.0 hPa North 11 km/h 12 km/h 80% 0.00 mm 0.00 W/m2
22:29 27.0 °C 23.0 °C 1013.9 hPa North 10 km/h 12 km/h 80% 0.00 mm 0.00 W/m2
22:34 27.0 °C 23.0 °C 1013.9 hPa North 8 km/h 12 km/h 81% 0.00 mm 0.00 W/m2
22:39 27.0 °C 23.0 °C 1013.9 hPa NNW 14 km/h 20 km/h 81% 0.00 mm 0.00 W/m2
22:44 27.0 °C 23.0 °C 1014.0 hPa NNW 12 km/h 16 km/h 80% 0.00 mm 0.00 W/m2
22:49 27.0 °C 23.0 °C 1013.8 hPa North 9 km/h 12 km/h 80% 0.00 mm 0.00 W/m2
22:54 27.0 °C 23.0 °C 1013.9 hPa North 12 km/h 16 km/h 80% 0.00 mm 0.00 W/m2
22:59 27.0 °C 23.0 °C 1013.8 hPa North 13 km/h 16 km/h 80% 0.00 mm 0.00 W/m2
23:04 27.0 °C 23.0 °C 1013.8 hPa NNW 13 km/h 16 km/h 80% 0.00 mm 0.00 W/m2
23:09 27.0 °C 23.0 °C 1013.7 hPa NNW 7 km/h 12 km/h 80% 0.00 mm 0.00 W/m2
23:14 27.0 °C 23.0 °C 1013.7 hPa North 10 km/h 12 km/h 81% 0.00 mm 0.00 W/m2
23:19 27.0 °C 23.0 °C 1013.5 hPa North 8 km/h 8 km/h 81% 0.00 mm 0.00 W/m2
23:24 26.0 °C 23.0 °C 1013.4 hPa NNW 10 km/h 12 km/h 81% 0.00 mm 0.00 W/m2
23:29 27.0 °C 23.0 °C 1013.5 hPa NNW 10 km/h 12 km/h 81% 0.00 mm 0.00 W/m2
23:34 26.0 °C 23.0 °C 1013.5 hPa NNW 9 km/h 12 km/h 81% 0.00 mm 0.00 W/m2
23:39 27.0 °C 23.0 °C 1013.5 hPa North 8 km/h 8 km/h 81% 0.00 mm 0.00 W/m2
23:44 27.0 °C 23.0 °C 1013.6 hPa North 10 km/h 16 km/h 80% 0.00 mm 0.00 W/m2
23:49 26.0 °C 23.0 °C 1013.7 hPa North 12 km/h 16 km/h 80% 0.00 mm 0.00 W/m2
23:54 26.0 °C 23.0 °C 1013.5 hPa North 12 km/h 16 km/h 81% 0.00 mm 0.00 W/m2
23:59 26.0 °C 23.0 °C 1013.4 hPa NNW 10 km/h 12 km/h 81% 0.00 mm 0.00 W/m2
PIMOHWEATHER Philippines
Compliments of Weather Underground - 2 mb